Change the Weather History Date:

Sunday, February 23, 2014

  Actual Average Record
Temperature  
Mean Temperature 48 °F 45 °F  
Max Temperature 62 °F 55 °F 81 °F (1982)
Min Temperature 34 °F 34 °F 17 °F (1989)
Degree Days  
Heating Degree Days 17 20  
Month to date heating degree days 594 537  
Since 1 July heating degree days 3146 2786  
Cooling Degree Days 0 0  
Month to date cooling degree days 0 0  
Year to date cooling degree days 0 0  
Moisture  
Dew Point 33 °F    
Average Humidity 61    
Maximum Humidity 82    
Minimum Humidity 39    
Precipitation  
Precipitation 0.00 in 0.15 in 1.64 in (1962)
Month to date precipitation 5.12 3.44  
Year to date precipitation 8.13 7.51  
Snow  
Snow 0.00 in 0.10 in 0.30 in (1966)
Month to date snowfall 0.5 1.5  
Since 1 July snowfall 0.5 4.1  
Snow Depth 0.00 in    
Sea Level Pressure  
Sea Level Pressure 30.07 in    
Wind  
Wind Speed 11 mph (North)    
Max Wind Speed 21 mph    
Max Gust Speed 28 mph    
Visibility 10 miles    
Events      
T = Trace of Precipitation, MM = Missing Value Source: NWS Daily Summary

Daily Weather History Graph

Daily Weather History Graph

Search for Another Location

Airport or City:

Trip Planner

Search our weather history database for the weather conditions in past years. The results will help you decide how hot, cold, wet, or windy it might be!

Date:

Astronomy

Feb. 23, 2014 Rise Set
Actual Time 6:33 AM CST 5:45 PM CST
Civil Twilight 6:07 AM CST 6:11 PM CST
Nautical Twilight 5:37 AM CST 6:40 PM CST
Astronomical Twilight 5:08 AM CST 7:10 PM CST
Moon 1:25 AM CST (2/23) 11:53 AM CST (2/23)
Length of Visible Light 12h 03m
Length of Day
11h 12m
Last Quarter, 38% of the Moon is Illuminated
Feb 23
Last Quarter
Mar 1
New
Mar 8
First Quarter
Mar 16
Full
Mar 23
Last Quarter

Hourly Weather History & Observations

Time (CST) Temp. Windchill Dew Point Humidity Pressure Visibility Wind Dir Wind Speed Gust Speed Precip Events Conditions
12:53 AM 48.0 °F - 28.9 °F 48% 29.99 in 10.0 mi South 6.9 mph - N/A   Clear
1:53 AM 48.9 °F - 28.9 °F 46% 29.99 in 10.0 mi South 9.2 mph - N/A   Clear
2:53 AM 46.9 °F - 30.0 °F 52% 29.97 in 10.0 mi South 9.2 mph - N/A   Clear
3:53 AM 48.0 °F - 30.9 °F 52% 29.96 in 10.0 mi SSW 9.2 mph - N/A   Clear
4:53 AM 48.0 °F - 30.9 °F 52% 29.96 in 10.0 mi South 9.2 mph - N/A   Clear
5:53 AM 48.0 °F - 32.0 °F 54% 29.97 in 10.0 mi SSW 6.9 mph - N/A   Clear
6:53 AM 45.0 °F 43.5 °F 30.9 °F 58% 29.99 in 10.0 mi South 3.5 mph - N/A   Clear
7:53 AM 50.0 °F - 34.0 °F 54% 30.01 in 10.0 mi Calm Calm - N/A   Clear
8:53 AM 55.0 °F - 34.0 °F 45% 30.01 in 10.0 mi Variable 3.5 mph - N/A   Clear
9:53 AM 57.9 °F - 35.1 °F 42% 30.02 in 10.0 mi NW 9.2 mph - N/A   Clear
10:53 AM 60.1 °F - 36.0 °F 41% 30.03 in 10.0 mi North 6.9 mph - N/A   Clear
11:53 AM 60.1 °F - 36.0 °F 41% 30.02 in 10.0 mi North 6.9 mph - N/A   Clear
12:53 PM 59.0 °F - 36.0 °F 42% 30.01 in 10.0 mi NNW 4.6 mph - N/A   Clear
1:53 PM 61.0 °F - 36.0 °F 39% 30.01 in 10.0 mi NNW 11.5 mph - N/A   Partly Cloudy
2:53 PM 57.9 °F - 36.0 °F 44% 30.01 in 10.0 mi North 16.1 mph - N/A   Mostly Cloudy
3:53 PM 55.9 °F - 36.0 °F 47% 30.03 in 10.0 mi North 16.1 mph - N/A   Overcast
4:53 PM 52.0 °F - 34.0 °F 50% 30.06 in 10.0 mi North 19.6 mph 24.2 mph N/A   Overcast
5:53 PM 50.0 °F - 34.0 °F 54% 30.09 in 10.0 mi North 10.4 mph - N/A   Overcast
6:53 PM 46.9 °F - 36.0 °F 66% 30.12 in 10.0 mi North 18.4 mph 23.0 mph N/A   Overcast
7:46 PM 42.8 °F 35.1 °F 37.4 °F 81% 30.15 in 10.0 mi NNE 16.1 mph 25.3 mph N/A   Overcast
7:53 PM 43.0 °F 35.1 °F 37.0 °F 80% 30.15 in 10.0 mi NNE 17.3 mph 23.0 mph N/A   Overcast
8:02 PM 42.8 °F 35.1 °F 35.6 °F 76% 30.16 in 10.0 mi NNE 16.1 mph 23.0 mph N/A   Overcast
8:36 PM 42.8 °F 35.1 °F 33.8 °F 70% 30.17 in 10.0 mi NNE 16.1 mph - N/A   Overcast
8:46 PM 41.0 °F 33.1 °F 33.8 °F 76% 30.17 in 10.0 mi NNE 15.0 mph - N/A   Overcast
8:53 PM 41.0 °F 32.5 °F 34.0 °F 76% 30.18 in 10.0 mi NNE 17.3 mph 21.9 mph N/A   Overcast
9:53 PM 39.0 °F 31.0 °F 28.9 °F 67% 30.20 in 10.0 mi NNE 13.8 mph - N/A   Mostly Cloudy
10:53 PM 37.0 °F 27.7 °F 26.1 °F 65% 30.22 in 10.0 mi NNE 16.1 mph 24.2 mph N/A   Scattered Clouds
11:53 PM 35.1 °F 26.4 °F 23.0 °F 61% 30.23 in 10.0 mi NNE 12.7 mph - N/A   Clear